Header for Extended Forecast Station List Page

Search by: ID | Name | Date | Parm | Value | Avg | % Avg
Sort by: ID | Name | Date | Parm | Value | Avg | % Avg

Enter search or view all records.

Click on id for station plot
#IDNameDateParmValueAvg% Avg
0HWRI1BIG LOST-AT HOWELL RANCH NEAR CHILLY04-08-2024DISCHARGE (KAF)180129139
1MACI1BIG LOST-MACKAY RESERVOIR NEAR MACKAY04-08-2024INFLOW (KAF)15990177
2HALI1BIG WOOD-AT HAILEY04-08-2024DISCHARGE (KAF)230183126
3MAGI1BIG WOOD-MAGIC DAM04-08-2024INFLOW (KAF)214151142
4BITM8BITTERROOT-NEAR MISSOULA04-08-2024DISCHARGE (KAF)761105972
5BONM8BLACKFOOT-NEAR BONNER04-08-2024DISCHARGE (KAF)42469661
6BIGI1BOISE-AT GLENWOOD BRIDGE04-08-2024DISCHARGE (KAF)608289210
7LUCI1BOISE-LUCKY PEAK DAM04-08-2024INFLOW (KAF)12831114115
8PARI1BOISE-NEAR PARMA04-08-2024DISCHARGE (KAF)580257226
9HOTI1BRUNEAU-NEAR HOT SPRINGS04-08-2024DISCHARGE (KAF)211143147
10BULO3BULLY CREEK-BULLY CREEK DAM04-08-2024INFLOW (KAF)51481
11BUDW1BUMPING-BUMPING LAKE DAM04-08-2024INFLOW (KAF)929893
12CHDW1CHELAN-LAKE CHELAN DAM04-08-2024INFLOW (KAF)51293755
13ABOM8CLARK FORK-ABOVE MISSOULA04-08-2024DISCHARGE (KAF)855122370
14DLGM8CLARK FORK-AT DEER LODGE04-08-2024DISCHARGE (KAF)657488
15SRGM8CLARK FORK-AT ST REGIS04-08-2024DISCHARGE (KAF)2183306571
16BELM8CLARK FORK-BELOW MISSOULA04-08-2024DISCHARGE (KAF)1616232969
17CABI1CLARK FORK-CABINET GORGE DAM04-08-2024INFLOW (KAF)6418864174
18NOXM8CLARK FORK-NOXON RAPIDS DAM04-08-2024INFLOW (KAF)5821781375
19DRMM8CLARK FORK-NR DRUMMOND04-08-2024DISCHARGE (KAF)19321789
20CLUW1CLE ELUM-CLE ELUM LAKE04-08-2024INFLOW (KAF)29733888
21ORFI1CLEARWATER-AT OROFINO04-08-2024DISCHARGE (KAF)3529391590
22SPDI1CLEARWATER-AT SPALDING04-08-2024DISCHARGE (KAF)5082608184
23COEI1COEUR D ALENE-COEUR D ALENE LAKE04-08-2024INFLOW (KAF)1535202676
24CIBW1COLUMBIA-AT INTL BOUNDARY04-08-2024DISCHARGE (KAF)244082934483
25BONO3COLUMBIA-BONNEVILLE DAM04-08-2024INFLOW (KAF)483415766684
26CHJW1COLUMBIA-CHIEF JOSEPH DAM04-08-2024INFLOW (KAF)260293043686
27GCDW1COLUMBIA-GRAND COULEE DAM04-08-2024INFLOW (KAF)276033140788
28JDAO3COLUMBIA-JOHN DAY DAM04-08-2024INFLOW (KAF)472125558685
29MCDW1COLUMBIA-MCNARY DAM04-08-2024INFLOW (KAF)454455477383
30PRWW1COLUMBIA-PRIEST RAPIDS DAM04-08-2024INFLOW (KAF)286353518481
31RRHW1COLUMBIA-ROCKY REACH DAM04-08-2024INFLOW (KAF)276773379782
32TDAO3COLUMBIA-THE DALLES DAM04-08-2024INFLOW (KAF)474715578285
33WANW1COLUMBIA-WANAPUM DAM04-08-2024INFLOW (KAF)286343511182
34WELW1COLUMBIA-WELLS DAM04-08-2024INFLOW (KAF)273353279483
35DEDI1DEADWOOD-NEAR LOWMAN04-08-2024INFLOW (KAF)115110104
36MODO3DESCHUTES-AT MOODY NR BIGGS04-08-2024DISCHARGE (KAF)12741262101
37ARDW1ENTIAT-NEAR ARDENVOIR04-08-2024DISCHARGE (KAF)14518181
38CHEI1FALL RIVER-NEAR CHESTER04-08-2024DISCHARGE (KAF)318302106
39CFMM8FLATHEAD-AT COLUMBIA FALLS04-08-2024DISCHARGE (KAF)3458399687
40KERM8FLATHEAD-SELI’Š KSANKA QLISPE’ DAM04-08-2024INFLOW (KAF)4092483385
41TRYO3GRANDE RONDE-TROY04-08-2024DISCHARGE (KAF)999110890
42REXI1HENRYS FORK-AT REXBURG04-08-2024DISCHARGE (KAF)682648105
43ANTI1HENRYS FORK-AT ST. ANTHONY04-08-2024DISCHARGE (KAF)594569104
44IPDI1HENRYS FORK-ISLAND PARK DAM04-08-2024INFLOW (KAF)17218195
45HODO3HOOD-NEAR TUCKER BRIDGE04-08-2024DISCHARGE (KAF)19419699
46SERO3JOHN DAY-AT SERVICE CK04-08-2024DISCHARGE (KAF)669611109
47KADW1KACHESS-KACHESS DAM04-08-2024INFLOW (KAF)708880
48LAUW1KETTLE-AT LAURIER04-08-2024DISCHARGE (KAF)1432167785
49PITW1KLICKITAT-NEAR PITT04-08-2024DISCHARGE (KAF)415415100
50BFEI1KOOTENAI-AT BONNERS FERRY04-08-2024STAGE (FT)MMM
51LEOI1KOOTENAI-AT LEONIA04-08-2024DISCHARGE (KAF)3945408597
52LYDM8KOOTENAI-LIBBY DAM04-08-2024INFLOW (KAF)4589511490
53LWRI1LITTLE WOOD-LITTLE WOOD DAM04-08-2024INFLOW (KAF)6951137
54BERO3MALHEUR-AGENCY VALLEY DAM04-08-2024INFLOW (KAF)404198
55WRMO3MALHEUR-WARM SPRINGS DAM04-08-2024INFLOW (KAF)5844132
56MYKO3MCKAY CREEK-NEAR PILOT ROCK04-08-2024DISCHARGE (KAF)81746
57PATW1METHOW-NEAR PATEROS04-08-2024DISCHARGE (KAF)49079462
58WGCM8MF FLATHEAD-NEAR WEST GLACIER04-08-2024DISCHARGE (KAF)1131139481
59CLFW1NACHES-NEAR CLIFFDEL04-08-2024DISCHARGE (KAF)29333887
60NACW1NACHES-NEAR NACHES04-08-2024DISCHARGE (KAF)44248491
61DWRI1NF CLEARWATER-DWORSHAK DAM04-08-2024INFLOW (KAF)1724216380
62FCFM8NF FLATHEAD-NEAR COLUMBIA FALLS04-08-2024DISCHARGE (KAF)1149145279
63MONO3NF JOHN DAY-AT MONUMENT04-08-2024DISCHARGE (KAF)42443498
64CSDI1NF PAYETTE-CASCADE DAM04-08-2024INFLOW (KAF)35041784
65TONW1OKANOGAN-NEAR TONASKET04-08-2024DISCHARGE (KAF)812141058
66OWYO3OWYHEE-OWYHEE DAM04-08-2024INFLOW (KAF)424181234
67EMMI1PAYETTE-NEAR EMMETT04-08-2024DISCHARGE (KAF)997108692
68ALFW1PEND OREILLE-ALBENI FALLS DAM04-08-2024INFLOW (KAF)7546968378
69HOPI1PEND OREILLE-LAKE PEND OREILLE NR HOPE04-08-2024LAKE ELEVATION (FT)MMM
70PIHI1PORTNEUF-AT POCATELLO04-08-2024DISCHARGE (KAF)15350303
71PRTI1PRIEST-NEAR PRIEST RIVER04-08-2024DISCHARGE (KAF)61770488
72RCCM8ROCK CREEK-NEAR CLINTON04-08-2024DISCHARGE (KAF)20323786
73WHBI1SALMON-AT WHITEBIRD04-08-2024DISCHARGE (KAF)4623505891
74ARAI1SF BOISE-ANDERSON RANCH DAM04-08-2024INFLOW (KAF)430375115
75HHWM8SF FLATHEAD-HUNGRY HORSE DAM04-08-2024INFLOW (KAF)1440173283
76PLDI1SF SNAKE-PALISADES DAM04-08-2024INFLOW (KAF)29302631111
77SIFI1SNAKE-AB EAGLE ROCK NR IDAHO FALLS04-08-2024DISCHARGE (KAF)27402000137
78AFRI1SNAKE-AMERICAN FALLS RESERVOIR04-08-2024INFLOW (KAF)26521732153
79SNAI1SNAKE-AT BLACKFOOT04-08-2024DISCHARGE (KAF)20381169174
80MILI1SNAKE-AT MILNER04-08-2024DISCHARGE (KAF)46353877
81WEII1SNAKE-AT WEISER04-08-2024DISCHARGE (KAF)48513623134
82SWAI1SNAKE-BELOW SWAN FALLS04-08-2024DISCHARGE (KAF)23991764136
83BRNI1SNAKE-BROWNLEE DAM04-08-2024INFLOW (KAF)53164037132
84IHDW1SNAKE-ICE HARBOR DAM04-08-2024INFLOW (KAF)160561799889
85JLKW4SNAKE-JACKSON LAKE AT DAM04-08-2024INFLOW (KAF)726682107
86LGSW1SNAKE-LITTLE GOOSE DAM04-08-2024INFLOW (KAF)160111797289
87LGDW1SNAKE-LOWER GRANITE DAM04-08-2024INFLOW (KAF)160111797089
88LMNW1SNAKE-LOWER MONUMENTAL DAM04-08-2024INFLOW (KAF)160561799189
89ALPW4SNAKE-NEAR ALPINE04-08-2024DISCHARGE (KAF)19831880105
90ANAW1SNAKE-NEAR ANATONE04-08-2024DISCHARGE (KAF)109291139396
91BFTI1SNAKE-NEAR BLACKFOOT04-08-2024DISCHARGE (KAF)19861144174
92HEII1SNAKE-NEAR HEISE04-08-2024DISCHARGE (KAF)33742844119
93JKSW4SNAKE-NEAR JACKSON04-08-2024DISCHARGE (KAF)16281491109
94SHYI1SNAKE-NEAR SHELLEY04-08-2024DISCHARGE (KAF)25551819140
95LLKW1SPOKANE-AT LONGLAKE04-08-2024INFLOW (KAF)1681237471
96SPOW1SPOKANE-AT SPOKANE04-08-2024DISCHARGE (KAF)1490212870
97SJMI1ST JOE-AT ST MARIES04-08-2024STAGE (FT)MMM
98SATI1ST MARIES-NEAR SANTA04-08-2024DISCHARGE (KAF)619366
99STRM8ST. REGIS-NEAR ST. REGIS04-08-2024DISCHARGE (KAF)20223187
100TNAW1TEANAWAY-BELOW FORKS04-08-2024DISCHARGE (KAF)9810692
101TEAI1TETON-NEAR ST. ANTHONY04-08-2024DISCHARGE (KAF)385335115
102RILW1TIETON-RIMROCK LAKE NEAR RIMROCK04-08-2024INFLOW (KAF)15917491
103PDTO3UMATILLA-AT PENDLETON04-08-2024DISCHARGE (KAF)10210696
104GIBO3UMATILLA-NEAR GIBBON04-08-2024DISCHARGE (KAF)585999
105UMAO3UMATILLA-NEAR UMATILLA04-08-2024DISCHARGE (KAF)649071
106TCHW1WALLA WALLA-NEAR TOUCHET04-08-2024DISCHARGE (KAF)9610393
107WSRI1WEISER-NEAR WEISER04-08-2024DISCHARGE (KAF)296291102
108PESW1WENATCHEE-AT PESHASTIN04-08-2024DISCHARGE (KAF)971125178
109UNDW1WHITE SALMON-NEAR UNDERWOOD04-08-2024DISCHARGE (KAF)24428785
110RIDI1WILLOW CREEK-RIRIE DAM04-08-2024INFLOW (KAF)7434217
111EASW1YAKIMA-AT EASTON04-08-2024DISCHARGE (KAF)869392
112KIOW1YAKIMA-AT KIONA04-08-2024DISCHARGE (KAF)62078179
113UMTW1YAKIMA-AT UMTANUM04-08-2024DISCHARGE (KAF)71679191
114KEDW1YAKIMA-KEECHELUS LAKE04-08-2024INFLOW (KAF)8110081
115PARW1YAKIMA-NEAR PARKER04-08-2024DISCHARGE (KAF)31748865